| time (UTC) | temp F | wind direction | speed MPH | gust MPH | rain 1hr in | rain 24hr in | rain mn in | humidity % | barometer mb |
| 20260831033811 | 56 | 81 | 0.0 | 2.0 | 0.00 | 0.45 | 0.02 | 96 | 1002.0 |
| 20260831032812 | 57 | 81 | 1.0 | 1.0 | 0.00 | 0.46 | 0.02 | 96 | 1002.0 |
| 20260831032311 | 57 | 81 | 1.0 | 2.0 | 0.00 | 0.46 | 0.02 | 96 | 1001.9 |
| 20260831031811 | 57 | 81 | 1.0 | 2.0 | 0.00 | 0.46 | 0.02 | 96 | 1001.9 |
| 20260831031312 | 57 | 81 | 1.0 | 3.0 | 0.00 | 0.46 | 0.02 | 96 | 1001.9 |
| 20260831030811 | 57 | 81 | 0.0 | 2.0 | 0.00 | 0.46 | 0.02 | 96 | 1001.8 |
| 20260831030311 | 57 | 81 | 0.0 | 1.0 | 0.00 | 0.46 | 0.02 | 96 | 1001.7 |
| 20260831025811 | 57 | 81 | 0.0 | 0.0 | 0.00 | 0.46 | 0.02 | 96 | 1001.7 |
| 20260831025311 | 57 | 81 | 0.0 | 1.0 | 0.00 | 0.46 | 0.02 | 96 | 1001.7 |
| 20260831024812 | 57 | 81 | 1.0 | 1.0 | 0.00 | 0.46 | 0.02 | 96 | 1001.7 |
| 20260831024311 | 57 | 81 | 0.0 | 2.0 | 0.00 | 0.46 | 0.02 | 96 | 1001.6 |
| 20260831023812 | 57 | 81 | 0.0 | 1.0 | 0.00 | 0.46 | 0.02 | 96 | 1001.6 |
| 20260831022812 | 57 | 81 | 0.0 | 0.0 | 0.00 | 0.46 | 0.02 | 96 | 1001.5 |
| 20260831022311 | 57 | 81 | 0.0 | 0.0 | 0.00 | 0.46 | 0.02 | 96 | 1001.5 |
| 20260831021812 | 57 | 81 | 0.0 | 0.0 | 0.00 | 0.46 | 0.02 | 96 | 1001.5 |
| 20260831021311 | 57 | 81 | 0.0 | 0.0 | 0.00 | 0.46 | 0.02 | 96 | 1001.5 |
| 20260831020813 | 57 | 81 | 0.0 | 0.0 | 0.00 | 0.46 | 0.02 | 96 | 1001.4 |
| 20260831020311 | 57 | 81 | 0.0 | 0.0 | 0.00 | 0.46 | 0.02 | 96 | 1001.4 |
| 20260831015312 | 57 | 81 | 0.0 | 1.0 | 0.00 | 0.46 | 0.02 | 96 | 1001.3 |
| 20260831014811 | 57 | 81 | 1.0 | 1.0 | 0.00 | 0.46 | 0.02 | 96 | 1001.3 |
| 20260831014311 | 57 | 81 | 0.0 | 1.0 | 0.00 | 0.46 | 0.02 | 96 | 1001.3 |
| 20260831013811 | 57 | 81 | 0.0 | 0.0 | 0.00 | 0.46 | 0.02 | 96 | 1001.3 |
| 20260831013311 | 57 | 81 | 0.0 | 0.0 | 0.00 | 0.46 | 0.02 | 96 | 1001.2 |
| 20260831012812 | 57 | 81 | 0.0 | 1.0 | 0.00 | 0.46 | 0.02 | 96 | 1001.3 |
| 20260831012311 | 57 | 81 | 0.0 | 2.0 | 0.00 | 0.46 | 0.02 | 96 | 1001.3 |
| 20260831011811 | 57 | 81 | 0.0 | 1.0 | 0.00 | 0.46 | 0.02 | 96 | 1001.4 |
| 20260831011311 | 57 | 81 | 0.0 | 2.0 | 0.00 | 0.46 | 0.02 | 96 | 1001.4 |
| 20260831010812 | 57 | 81 | 1.0 | 2.0 | 0.01 | 0.46 | 0.02 | 96 | 1001.4 |
| 20260831010311 | 57 | 81 | 0.0 | 1.0 | 0.01 | 0.46 | 0.02 | 96 | 1001.4 |
| 20260831005811 | 57 | 81 | 0.0 | 0.0 | 0.01 | 0.46 | 0.02 | 96 | 1001.4 |
| 20260831005311 | 57 | 81 | 0.0 | 0.0 | 0.01 | 0.46 | 0.02 | 96 | 1001.4 |
| 20260831004811 | 57 | 81 | 0.0 | 2.0 | 0.01 | 0.46 | 0.02 | 96 | 1001.5 |
| 20260831004311 | 57 | 81 | 1.0 | 2.0 | 0.01 | 0.46 | 0.02 | 96 | 1001.5 |
| 20260831003811 | 57 | 81 | 0.0 | 0.0 | 0.01 | 0.46 | 0.02 | 96 | 1001.5 |
| 20260831003311 | 57 | 81 | 0.0 | 1.0 | 0.01 | 0.46 | 0.02 | 96 | 1001.5 |
| 20260831002813 | 57 | 81 | 1.0 | 1.0 | 0.01 | 0.46 | 0.02 | 96 | 1001.4 |
| 20260831002311 | 57 | 81 | 0.0 | 1.0 | 0.01 | 0.46 | 0.02 | 95 | 1001.3 |
| 20260831001811 | 57 | 81 | 0.0 | 0.0 | 0.01 | 0.46 | 0.02 | 96 | 1001.3 |
| 20260831001311 | 57 | 81 | 1.0 | 17.0 | 0.02 | 0.46 | 0.02 | 96 | 1001.3 |
| 20260831000311 | 57 | 81 | 0.0 | 1.0 | 0.01 | 0.45 | 0.01 | 95 | 1001.2 |
| 20260830235811 | 57 | 81 | 1.0 | 2.0 | 0.01 | 0.45 | 0.01 | 95 | 1001.2 |
| 20260830235311 | 57 | 81 | 0.0 | 1.0 | 0.01 | 0.45 | 0.01 | 95 | 1001.2 |
| 20260830234812 | 57 | 81 | 1.0 | 2.0 | 0.01 | 0.45 | 0.01 | 95 | 1001.3 |
| 20260830234312 | 57 | 81 | 1.0 | 2.0 | 0.01 | 0.45 | 0.01 | 95 | 1001.3 |
| 20260830233811 | 57 | 81 | 0.0 | 1.0 | 0.01 | 0.45 | 0.01 | 95 | 1001.4 |
| 20260830233311 | 57 | 81 | 1.0 | 2.0 | 0.01 | 0.45 | 0.01 | 95 | 1001.5 |
| 20260830232811 | 57 | 81 | 1.0 | 2.0 | 0.01 | 0.45 | 0.01 | 95 | 1001.5 |
| 20260830232311 | 57 | 81 | 1.0 | 2.0 | 0.01 | 0.46 | 0.01 | 95 | 1001.5 |
| 20260830231812 | 57 | 81 | 1.0 | 1.0 | 0.01 | 0.46 | 0.01 | 95 | 1001.5 |
| 20260830230900 | 57 | 81 | 1.0 | 2.0 | 0.00 | 0.45 | 0.00 | 95 | 1001.6 |
| 20260830230312 | 57 | 81 | 1.0 | 1.0 | 0.00 | 0.45 | 0.00 | 95 | 1001.7 |
| 20260830225813 | 57 | 81 | 0.0 | 1.0 | 0.00 | 0.45 | 0.45 | 95 | 1001.7 |
| 20260830225311 | 57 | 81 | 0.0 | 1.0 | 0.00 | 0.45 | 0.45 | 95 | 1001.8 |
| 20260830224811 | 57 | 81 | 1.0 | 2.0 | 0.00 | 0.45 | 0.45 | 95 | 1001.8 |
| 20260830224311 | 57 | 81 | 1.0 | 2.0 | 0.00 | 0.45 | 0.45 | 95 | 1001.9 |
| 20260830223811 | 57 | 81 | 1.0 | 3.0 | 0.00 | 0.45 | 0.45 | 95 | 1001.9 |
| 20260830223311 | 57 | 98 | 1.0 | 3.0 | 0.00 | 0.45 | 0.45 | 95 | 1002.1 |
| 20260830222811 | 57 | 98 | 1.0 | 3.0 | 0.00 | 0.45 | 0.45 | 95 | 1002.1 |
| 20260830222311 | 57 | 98 | 1.0 | 2.0 | 0.00 | 0.45 | 0.45 | 95 | 1002.1 |
| 20260830221811 | 57 | 98 | 0.0 | 1.0 | 0.00 | 0.45 | 0.45 | 95 | 1002.1 |
| 20260830221311 | 57 | 98 | 0.0 | 2.0 | 0.00 | 0.45 | 0.45 | 95 | 1002.1 |
| 20260830220812 | 57 | 98 | 1.0 | 2.0 | 0.00 | 0.45 | 0.45 | 94 | 1002.2 |
| 20260830220311 | 57 | 98 | 1.0 | 1.0 | 0.00 | 0.45 | 0.45 | 94 | 1002.2 |
| 20260830215811 | 57 | 98 | 1.0 | 2.0 | 0.00 | 0.45 | 0.45 | 94 | 1002.2 |
| 20260830214811 | 57 | 98 | 1.0 | 2.0 | 0.00 | 0.45 | 0.45 | 94 | 1002.2 |
| 20260830214311 | 57 | 98 | 0.0 | 2.0 | 0.00 | 0.45 | 0.45 | 94 | 1002.1 |
| 20260830213311 | 58 | 98 | 1.0 | 2.0 | 0.00 | 0.45 | 0.45 | 93 | 1002.0 |
| 20260830212811 | 58 | 98 | 1.0 | 2.0 | 0.00 | 0.45 | 0.45 | 93 | 1002.0 |
| 20260830212311 | 58 | 98 | 1.0 | 2.0 | 0.00 | 0.45 | 0.45 | 93 | 1002.0 |
| 20260830211811 | 59 | 98 | 0.0 | 1.0 | 0.00 | 0.45 | 0.45 | 93 | 1002.0 |
| 20260830211312 | 59 | 98 | 0.0 | 2.0 | 0.00 | 0.45 | 0.45 | 93 | 1002.1 |
| 20260830210811 | 59 | 98 | 0.0 | 3.0 | 0.00 | 0.45 | 0.45 | 93 | 1002.1 |
| 20260830205811 | 59 | 98 | 0.0 | 2.0 | 0.00 | 0.45 | 0.45 | 93 | 1002.3 |
| 20260830204811 | 59 | 118 | 1.0 | 3.0 | 0.00 | 0.45 | 0.45 | 93 | 1002.4 |
| 20260830203811 | 59 | 138 | 0.0 | 1.0 | 0.00 | 0.46 | 0.45 | 93 | 1002.4 |
| 20260830203311 | 59 | 138 | 0.0 | 3.0 | 0.00 | 0.46 | 0.45 | 93 | 1002.4 |
| 20260830201812 | 59 | 155 | 0.0 | 2.0 | 0.00 | 0.46 | 0.45 | 93 | 1002.4 |
| 20260830201311 | 59 | 155 | 1.0 | 1.0 | 0.00 | 0.46 | 0.45 | 93 | 1002.4 |
| 20260830200811 | 59 | 155 | 0.0 | 2.0 | 0.00 | 0.46 | 0.45 | 93 | 1002.4 |
| 20260830200311 | 59 | 155 | 1.0 | 2.0 | 0.00 | 0.46 | 0.45 | 93 | 1002.5 |
| 20260830195811 | 59 | 155 | 2.0 | 5.0 | 0.00 | 0.46 | 0.45 | 93 | 1002.4 |
| 20260830195312 | 59 | 93 | 1.0 | 3.0 | 0.00 | 0.46 | 0.45 | 94 | 1002.5 |
| 20260830194812 | 59 | 48 | 1.0 | 5.0 | 0.00 | 0.46 | 0.45 | 94 | 1002.4 |
| 20260830194310 | 59 | 178 | 1.0 | 3.0 | 0.00 | 0.46 | 0.45 | 94 | 1002.5 |
| 20260830193811 | 58 | 49 | 1.0 | 3.0 | 0.02 | 0.46 | 0.45 | 94 | 1002.4 |
| 20260830193310 | 58 | 250 | 1.0 | 2.0 | 0.04 | 0.46 | 0.45 | 94 | 1002.4 |
| 20260830192811 | 58 | 250 | 1.0 | 2.0 | 0.06 | 0.46 | 0.45 | 94 | 1002.4 |
| 20260830192311 | 58 | 250 | 1.0 | 2.0 | 0.06 | 0.46 | 0.45 | 93 | 1002.4 |
| 20260830191811 | 58 | 250 | 0.0 | 2.0 | 0.08 | 0.46 | 0.45 | 93 | 1002.4 |
| 20260830191310 | 58 | 250 | 0.0 | 2.0 | 0.09 | 0.46 | 0.45 | 93 | 1002.3 |
| 20260830190811 | 58 | 250 | 0.0 | 1.0 | 0.12 | 0.46 | 0.45 | 93 | 1002.1 |
| 20260830190311 | 58 | 250 | 0.0 | 2.0 | 0.18 | 0.46 | 0.45 | 93 | 1002.1 |
| 20260830185811 | 58 | 250 | 0.0 | 2.0 | 0.19 | 0.46 | 0.45 | 92 | 1002.0 |
| 20260830185311 | 58 | 250 | 1.0 | 2.0 | 0.19 | 0.46 | 0.45 | 92 | 1002.1 |
| 20260830184811 | 59 | 250 | 1.0 | 2.0 | 0.19 | 0.46 | 0.45 | 92 | 1002.2 |
| 20260830184311 | 59 | 250 | 0.0 | 3.0 | 0.20 | 0.46 | 0.45 | 92 | 1002.4 |
| 20260830183813 | 59 | 154 | 1.0 | 3.0 | 0.20 | 0.44 | 0.43 | 91 | 1002.5 |
| 20260830183311 | 59 | 153 | 1.0 | 3.0 | 0.18 | 0.42 | 0.41 | 91 | 1002.7 |
| 20260830181811 | 59 | 174 | 5.0 | 8.0 | 0.14 | 0.38 | 0.37 | 88 | 1002.7 |
| 20260830181311 | 60 | 155 | 5.0 | 12.0 | 0.13 | 0.37 | 0.36 | 87 | 1002.8 |
| 20260830175310 | 64 | 119 | 1.0 | 3.0 | 0.03 | 0.27 | 0.26 | 88 | 1002.4 |
| 20260830174812 | 64 | 119 | 1.0 | 3.0 | 0.03 | 0.27 | 0.26 | 87 | 1002.4 |
| 20260830174311 | 64 | 134 | 1.0 | 3.0 | 0.02 | 0.26 | 0.25 | 86 | 1002.7 |
| 20260830173811 | 64 | 168 | 0.0 | 2.0 | 0.00 | 0.24 | 0.23 | 86 | 1002.7 |
| 20260830173311 | 64 | 168 | 0.0 | 1.0 | 0.00 | 0.24 | 0.23 | 86 | 1002.6 |
| 20260830172811 | 64 | 168 | 0.0 | 1.0 | 0.00 | 0.24 | 0.23 | 86 | 1002.5 |
| 20260830172311 | 64 | 168 | 0.0 | 1.0 | 0.00 | 0.24 | 0.23 | 86 | 1002.7 |
| 20260830170811 | 64 | 168 | 1.0 | 3.0 | 0.00 | 0.24 | 0.23 | 84 | 1002.9 |
| 20260830170311 | 64 | 168 | 0.0 | 3.0 | 0.00 | 0.24 | 0.23 | 83 | 1002.9 |
| 20260830165311 | 64 | 117 | 1.0 | 5.0 | 0.00 | 0.24 | 0.23 | 84 | 1002.8 |
| 20260830164811 | 64 | 108 | 2.0 | 5.0 | 0.00 | 0.24 | 0.23 | 84 | 1002.8 |
| 20260830164311 | 64 | 128 | 1.0 | 3.0 | 0.00 | 0.24 | 0.23 | 84 | 1002.8 |
| 20260830163811 | 64 | 128 | 1.0 | 3.0 | 0.00 | 0.24 | 0.23 | 85 | 1002.8 |
| 20260830163311 | 64 | 128 | 1.0 | 3.0 | 0.00 | 0.24 | 0.23 | 84 | 1002.8 |
| 20260830162811 | 64 | 167 | 0.0 | 2.0 | 0.00 | 0.24 | 0.23 | 85 | 1002.9 |
| 20260830161811 | 64 | 167 | 2.0 | 5.0 | 0.00 | 0.24 | 0.23 | 86 | 1003.0 |
| 20260830161311 | 63 | 167 | 2.0 | 3.0 | 0.00 | 0.24 | 0.23 | 86 | 1003.0 |
| 20260830160811 | 63 | 167 | 2.0 | 3.0 | 0.00 | 0.24 | 0.23 | 85 | 1003.0 |
| 20260830160311 | 63 | 167 | 0.0 | 3.0 | 0.00 | 0.24 | 0.23 | 86 | 1003.0 |
| 20260830155811 | 63 | 167 | 1.0 | 3.0 | 0.00 | 0.24 | 0.23 | 86 | 1003.0 |
| 20260830154811 | 63 | 168 | 2.0 | 3.0 | 0.00 | 0.24 | 0.23 | 85 | 1003.2 |
| 20260830154311 | 63 | 103 | 1.0 | 3.0 | 0.00 | 0.24 | 0.23 | 87 | 1003.3 |
| 20260830153812 | 63 | 103 | 1.0 | 3.0 | 0.01 | 0.24 | 0.23 | 88 | 1003.4 |
| 20260830152811 | 62 | 103 | 2.0 | 5.0 | 0.02 | 0.24 | 0.23 | 89 | 1003.4 |
| 20260830151311 | 62 | 132 | 1.0 | 3.0 | 0.02 | 0.24 | 0.23 | 89 | 1003.6 |
| 20260830150811 | 62 | 175 | 2.0 | 3.0 | 0.02 | 0.24 | 0.23 | 90 | 1003.6 |
| 20260830145811 | 61 | 175 | 2.0 | 3.0 | 0.02 | 0.24 | 0.23 | 89 | 1003.6 |
| 20260830145311 | 61 | 135 | 2.0 | 6.0 | 0.02 | 0.24 | 0.23 | 89 | 1003.7 |
| 20260830144810 | 62 | 164 | 3.0 | 6.0 | 0.02 | 0.24 | 0.23 | 88 | 1003.9 |
| 20260830143311 | 63 | 203 | 4.0 | 9.0 | 0.01 | 0.22 | 0.21 | 86 | 1004.3 |
| 20260830142811 | 63 | 218 | 7.0 | 12.0 | 0.00 | 0.21 | 0.20 | 84 | 1004.3 |
| 20260830141812 | 63 | 170 | 6.0 | 9.0 | 0.00 | 0.21 | 0.20 | 83 | 1004.1 |
| 20260830141310 | 63 | 201 | 6.0 | 12.0 | 0.00 | 0.21 | 0.20 | 84 | 1004.2 |
| 20260830140810 | 63 | 204 | 5.0 | 8.0 | 0.00 | 0.21 | 0.20 | 84 | 1004.2 |
| 20260830140311 | 64 | 210 | 7.0 | 12.0 | 0.00 | 0.21 | 0.20 | 82 | 1004.3 |
| 20260830135811 | 65 | 214 | 6.0 | 12.0 | 0.00 | 0.21 | 0.20 | 79 | 1004.3 |
| 20260830135312 | 66 | 213 | 8.0 | 14.0 | 0.00 | 0.21 | 0.20 | 76 | 1004.3 |
| 20260830134811 | 66 | 176 | 8.0 | 13.0 | 0.00 | 0.21 | 0.20 | 73 | 1004.2 |
| 20260830134310 | 67 | 174 | 7.0 | 12.0 | 0.00 | 0.21 | 0.20 | 71 | 1004.1 |
| 20260830133811 | 67 | 163 | 5.0 | 10.0 | 0.00 | 0.21 | 0.20 | 71 | 1004.1 |
| 20260830133310 | 67 | 140 | 6.0 | 10.0 | 0.00 | 0.21 | 0.20 | 69 | 1004.0 |
| 20260830132811 | 68 | 189 | 6.0 | 10.0 | 0.00 | 0.21 | 0.20 | 69 | 1004.1 |
| 20260830132310 | 68 | 148 | 4.0 | 9.0 | 0.00 | 0.21 | 0.20 | 69 | 1004.0 |
| 20260830131811 | 68 | 156 | 5.0 | 10.0 | 0.00 | 0.21 | 0.20 | 69 | 1004.2 |
| 20260830131311 | 68 | 179 | 4.0 | 9.0 | 0.00 | 0.21 | 0.20 | 68 | 1004.3 |
| 20260830130811 | 68 | 141 | 5.0 | 10.0 | 0.00 | 0.21 | 0.20 | 67 | 1004.2 |
| 20260830125810 | 69 | 150 | 5.0 | 8.0 | 0.00 | 0.21 | 0.20 | 67 | 1004.2 |
| 20260830125310 | 69 | 154 | 5.0 | 9.0 | 0.00 | 0.21 | 0.20 | 68 | 1004.3 |
| 20260830124810 | 69 | 153 | 4.0 | 7.0 | 0.00 | 0.21 | 0.20 | 67 | 1004.3 |
| 20260830124311 | 69 | 157 | 6.0 | 12.0 | 0.00 | 0.21 | 0.20 | 67 | 1004.4 |
| 20260830123810 | 69 | 136 | 5.0 | 12.0 | 0.00 | 0.21 | 0.20 | 67 | 1004.5 |
| 20260830123312 | 69 | 188 | 3.0 | 9.0 | 0.00 | 0.21 | 0.20 | 68 | 1004.6 |
| 20260830122811 | 69 | 159 | 4.0 | 9.0 | 0.00 | 0.21 | 0.20 | 68 | 1004.5 |
| 20260830122311 | 68 | 153 | 5.0 | 9.0 | 0.00 | 0.21 | 0.20 | 68 | 1004.6 |
| 20260830121311 | 67 | 171 | 3.0 | 7.0 | 0.00 | 0.21 | 0.20 | 71 | 1004.7 |
| 20260830120811 | 67 | 192 | 3.0 | 8.0 | 0.00 | 0.21 | 0.20 | 70 | 1004.7 |
| 20260830115811 | 67 | 151 | 4.0 | 8.0 | 0.00 | 0.21 | 0.20 | 70 | 1004.7 |
| 20260830114811 | 68 | 205 | 4.0 | 9.0 | 0.00 | 0.21 | 0.20 | 70 | 1004.7 |
| 20260830114311 | 68 | 215 | 4.0 | 7.0 | 0.00 | 0.21 | 0.20 | 69 | 1004.8 |
| 20260830113810 | 68 | 177 | 4.0 | 8.0 | 0.00 | 0.21 | 0.20 | 70 | 1004.8 |
| 20260830113311 | 68 | 168 | 5.0 | 9.0 | 0.00 | 0.21 | 0.20 | 70 | 1004.9 |
| 20260830112310 | 67 | 222 | 4.0 | 10.0 | 0.00 | 0.21 | 0.20 | 70 | 1005.0 |
| 20260830111310 | 67 | 185 | 5.0 | 9.0 | 0.00 | 0.21 | 0.20 | 72 | 1005.1 |
| 20260830110810 | 67 | 172 | 3.0 | 9.0 | 0.00 | 0.21 | 0.20 | 74 | 1005.1 |
| 20260830110310 | 66 | 183 | 5.0 | 7.0 | 0.00 | 0.21 | 0.20 | 74 | 1005.2 |
| 20260830105810 | 66 | 203 | 3.0 | 7.0 | 0.00 | 0.21 | 0.20 | 77 | 1005.3 |
| 20260830105310 | 66 | 220 | 5.0 | 8.0 | 0.00 | 0.21 | 0.20 | 78 | 1005.3 |
| 20260830104810 | 66 | 179 | 5.0 | 9.0 | 0.00 | 0.21 | 0.20 | 78 | 1005.2 |
| 20260830104310 | 66 | 181 | 5.0 | 9.0 | 0.00 | 0.21 | 0.20 | 78 | 1005.3 |
| 20260830103810 | 65 | 204 | 3.0 | 9.0 | 0.00 | 0.21 | 0.20 | 79 | 1005.3 |
| 20260830103310 | 65 | 210 | 3.0 | 7.0 | 0.00 | 0.21 | 0.20 | 81 | 1005.4 |
| 20260830102811 | 65 | 208 | 3.0 | 7.0 | 0.00 | 0.21 | 0.20 | 83 | 1005.3 |
| 20260830102310 | 64 | 200 | 4.0 | 12.0 | 0.00 | 0.21 | 0.20 | 82 | 1005.2 |
| 20260830101810 | 64 | 205 | 5.0 | 9.0 | 0.00 | 0.21 | 0.20 | 83 | 1005.3 |
| 20260830101310 | 64 | 205 | 5.0 | 9.0 | 0.00 | 0.21 | 0.20 | 84 | 1005.4 |
| 20260830100811 | 63 | 199 | 6.0 | 8.0 | 0.00 | 0.21 | 0.20 | 84 | 1005.4 |
| 20260830100311 | 63 | 189 | 5.0 | 9.0 | 0.00 | 0.21 | 0.20 | 85 | 1005.4 |
| 20260830095812 | 63 | 190 | 4.0 | 8.0 | 0.00 | 0.21 | 0.20 | 86 | 1005.5 |
| 20260830095310 | 63 | 204 | 5.0 | 7.0 | 0.00 | 0.21 | 0.20 | 86 | 1005.5 |
| 20260830094811 | 63 | 167 | 4.0 | 9.0 | 0.00 | 0.21 | 0.20 | 87 | 1005.5 |
| 20260830094310 | 63 | 212 | 3.0 | 8.0 | 0.00 | 0.21 | 0.20 | 87 | 1005.5 |
| 20260830093810 | 63 | 172 | 3.0 | 6.0 | 0.00 | 0.21 | 0.20 | 88 | 1005.6 |
| 20260830093310 | 63 | 198 | 4.0 | 7.0 | 0.00 | 0.21 | 0.20 | 87 | 1005.5 |
| 20260830092810 | 62 | 203 | 3.0 | 9.0 | 0.00 | 0.21 | 0.20 | 88 | 1005.5 |
| 20260830092310 | 62 | 180 | 4.0 | 10.0 | 0.00 | 0.21 | 0.20 | 89 | 1005.5 |
| 20260830091310 | 62 | 215 | 3.0 | 9.0 | 0.00 | 0.21 | 0.20 | 90 | 1005.5 |
| 20260830090810 | 62 | 176 | 2.0 | 6.0 | 0.00 | 0.21 | 0.20 | 91 | 1005.5 |
| 20260830090310 | 61 | 184 | 2.0 | 6.0 | 0.00 | 0.21 | 0.20 | 92 | 1005.5 |
| 20260830085811 | 61 | 180 | 1.0 | 5.0 | 0.00 | 0.21 | 0.20 | 93 | 1005.5 |
| 20260830085310 | 61 | 215 | 1.0 | 3.0 | 0.00 | 0.21 | 0.20 | 93 | 1005.5 |
| 20260830084810 | 61 | 215 | 1.0 | 3.0 | 0.00 | 0.21 | 0.20 | 93 | 1005.5 |
| 20260830084310 | 61 | 215 | 1.0 | 3.0 | 0.00 | 0.21 | 0.20 | 93 | 1005.5 |
| 20260830083811 | 61 | 215 | 2.0 | 3.0 | 0.00 | 0.21 | 0.20 | 93 | 1005.5 |
| 20260830083311 | 61 | 171 | 1.0 | 5.0 | 0.00 | 0.21 | 0.20 | 93 | 1005.5 |
| 20260830082310 | 60 | 211 | 1.0 | 3.0 | 0.00 | 0.21 | 0.20 | 94 | 1005.4 |
| 20260830081811 | 60 | 222 | 2.0 | 6.0 | 0.00 | 0.21 | 0.20 | 95 | 1005.4 |
| 20260830081310 | 60 | 192 | 1.0 | 2.0 | 0.00 | 0.21 | 0.20 | 95 | 1005.3 |
| 20260830080310 | 60 | 154 | 1.0 | 3.0 | 0.00 | 0.21 | 0.20 | 95 | 1005.3 |
| 20260830075309 | 60 | 126 | 0.0 | 2.0 | 0.00 | 0.21 | 0.20 | 96 | 1005.4 |
| 20260830074810 | 60 | 126 | 1.0 | 2.0 | 0.00 | 0.21 | 0.20 | 96 | 1005.4 |
| 20260830074311 | 60 | 126 | 0.0 | 3.0 | 0.00 | 0.21 | 0.20 | 96 | 1005.4 |
| 20260830073810 | 60 | 126 | 1.0 | 3.0 | 0.00 | 0.21 | 0.20 | 96 | 1005.4 |
| 20260830073310 | 60 | 126 | 1.0 | 3.0 | 0.00 | 0.21 | 0.20 | 96 | 1005.4 |
| 20260830072810 | 60 | 126 | 2.0 | 3.0 | 0.00 | 0.21 | 0.20 | 96 | 1005.4 |
| 20260830072310 | 60 | 153 | 1.0 | 2.0 | 0.00 | 0.21 | 0.20 | 96 | 1005.4 |
| 20260830071810 | 60 | 153 | 0.0 | 2.0 | 0.00 | 0.21 | 0.20 | 96 | 1005.4 |
| 20260830071310 | 60 | 153 | 1.0 | 2.0 | 0.00 | 0.21 | 0.20 | 96 | 1005.4 |
| 20260830070810 | 60 | 153 | 0.0 | 2.0 | 0.00 | 0.21 | 0.20 | 96 | 1005.4 |
| 20260830070310 | 59 | 153 | 0.0 | 2.0 | 0.00 | 0.21 | 0.20 | 96 | 1005.3 |
| 20260830065310 | 59 | 153 | 0.0 | 1.0 | 0.00 | 0.21 | 0.20 | 96 | 1005.4 |
| 20260830064810 | 59 | 153 | 0.0 | 1.0 | 0.00 | 0.21 | 0.20 | 96 | 1005.3 |
| 20260830064310 | 59 | 153 | 0.0 | 2.0 | 0.00 | 0.21 | 0.20 | 96 | 1005.3 |
| 20260830063810 | 60 | 153 | 1.0 | 1.0 | 0.00 | 0.21 | 0.20 | 96 | 1005.2 |
| 20260830062810 | 59 | 153 | 0.0 | 2.0 | 0.00 | 0.21 | 0.20 | 96 | 1005.2 |
| 20260830062310 | 59 | 153 | 0.0 | 2.0 | 0.00 | 0.21 | 0.20 | 96 | 1005.1 |
| 20260830061810 | 59 | 153 | 0.0 | 2.0 | 0.00 | 0.21 | 0.20 | 96 | 1005.1 |
| 20260830061310 | 59 | 153 | 0.0 | 2.0 | 0.00 | 0.21 | 0.20 | 96 | 1005.1 |
| 20260830060810 | 59 | 153 | 0.0 | 1.0 | 0.00 | 0.21 | 0.20 | 96 | 1005.0 |
| 20260830060310 | 59 | 153 | 0.0 | 2.0 | 0.00 | 0.21 | 0.20 | 96 | 1005.0 |
| 20260830055810 | 59 | 153 | 0.0 | 0.0 | 0.00 | 0.21 | 0.20 | 96 | 1004.9 |
| 20260830054310 | 59 | 153 | 0.0 | 2.0 | 0.02 | 0.21 | 0.20 | 96 | 1004.8 |
| 20260830053810 | 59 | 153 | 0.0 | 1.0 | 0.02 | 0.21 | 0.20 | 96 | 1004.8 |
| 20260830053310 | 59 | 153 | 0.0 | 0.0 | 0.06 | 0.21 | 0.20 | 96 | 1004.7 |
| 20260830052810 | 59 | 153 | 0.0 | 0.0 | 0.08 | 0.21 | 0.20 | 96 | 1004.6 |
| 20260830052310 | 59 | 153 | 0.0 | 0.0 | 0.11 | 0.21 | 0.20 | 96 | 1004.6 |
| 20260830051310 | 59 | 153 | 0.0 | 0.0 | 0.13 | 0.21 | 0.20 | 96 | 1004.6 |
| 20260830050311 | 59 | 153 | 0.0 | 0.0 | 0.17 | 0.21 | 0.20 | 96 | 1004.6 |
| 20260830045810 | 59 | 153 | 0.0 | 0.0 | 0.17 | 0.21 | 0.20 | 96 | 1004.6 |
| 20260830045310 | 59 | 153 | 0.0 | 0.0 | 0.17 | 0.21 | 0.20 | 96 | 1004.7 |
| 20260830044810 | 59 | 153 | 0.0 | 0.0 | 0.18 | 0.21 | 0.20 | 95 | 1004.7 |
| 20260830044311 | 59 | 153 | 0.0 | 0.0 | 0.17 | 0.20 | 0.19 | 95 | 1004.7 |
| 20260830043310 | 59 | 153 | 0.0 | 2.0 | 0.13 | 0.15 | 0.14 | 95 | 1004.7 |
| 20260830042810 | 59 | 153 | 0.0 | 2.0 | 0.12 | 0.13 | 0.13 | 95 | 1004.7 |
| 20260830042310 | 59 | 153 | 0.0 | 0.0 | 0.09 | 0.10 | 0.09 | 95 | 1004.6 |
| 20260830041810 | 59 | 153 | 0.0 | 2.0 | 0.07 | 0.09 | 0.08 | 95 | 1004.6 |
| 20260830041310 | 59 | 153 | 0.0 | 2.0 | 0.06 | 0.08 | 0.07 | 95 | 1004.5 |
| 20260830040310 | 59 | 153 | 0.0 | 0.0 | 0.03 | 0.05 | 0.04 | 95 | 1004.6 |
| 20260830035310 | 59 | 153 | 0.0 | 0.0 | 0.02 | 0.04 | 0.03 | 95 | 1004.5 |
| 20260830034810 | 59 | 153 | 1.0 | 2.0 | 0.02 | 0.03 | 0.02 | 95 | 1004.6 |
| 20260830034310 | 59 | 153 | 1.0 | 3.0 | 0.02 | 0.03 | 0.02 | 95 | 1004.6 |